COSMOS 1275 DEB

Satellite information

Favourite Embed

Satellite Type and Status

DEBRISIN ORBIT

Key statistics

Satellite COSMOS 1275 DEB at a glance.

Uptime

16211

Days in orbit

Revolutions

≈ 14.5

Per day

Orbit

LEO

Low Earth Orbit

Inclination

82.9

Latest

Satellite identification and parameters

Extended collection of information and parameters for COSMOS 1275 DEB.

Object identification

Identified? True

Debris? True

Object name: COSMOS 1275 DEB

International designator: 1981-053FP

Object number (NORAD): 13467

Object ID (CCSDS): 13467

Country: COMMONWEALTH OF INDEPENDENT STATES (CIS)

Current information (Y/N): Y

RCS size: SMALL

Orbital parameters

Period: 99.081 minutes

Inclination: 82.9413 deg

SMA: 7092.841 km

Apoapsis: 726.327 km

Periapsis: 703.086 km

RAAN: 68.5703 deg

Eccentricy: 0.0016384

Argument of periapsis: 301.1055 deg

Mean anomaly: 216.6826 deg

Mean motion: 14.53357249 rev/day

Mean motion (dot): 0.0001356 rev/day2

B* drag term: 0.0032482 1/REarth

Two-line elements (TLE)

Creation date: Oct. 21, 2025, 11:56 p.m.

Reference frame: TEME

Reference center: EARTH

Epoch: Oct. 21, 2025, 8:41 p.m. UTC

TLE line 0: 0 COSMOS 1275 DEB

TLE line 1: 1 13467U 81053FP 25294.86185160 .00013560 00000-0 32482-2 0 9991

TLE line 2: 2 13467 82.9413 68.5703 0016384 301.1055 216.6826 14.53357249254540

Live tracking on map

Real-time ground track for satellite COSMOS 1275 DEB.

In-orbit conjunctions

A list of the most updated potential collisions computed for object COSMOS 1275 DEB.

Target Orbit TCA Probability of collision Miss distance Type
CZ-4 DEB SSO 2025-07-28 22:27:48 0.0001561876 69.0 (m) DEBRIS
ARIANE 40 R/B SSO 2024-07-06 18:09:20 0.000166175 107.0 (m) ROCKET BODY
DELTA 1 DEB SSO 2024-06-29 09:54:06 0.0001996921 131.0 (m) DEBRIS
DELTA 1 DEB SSO 2024-05-31 11:38:55 0.0001429976 113.0 (m) DEBRIS

Associated space launch

Navigation satellite providing location information for the Tsiklon-B navigation system

COSMOS 1275 DEB was lifted into orbit during the mission ‘Kosmos-3M | Parus 27’, on board a Kosmos-3M space rocket.

The launch took place on June 4, 1981, 3:41 p.m. from 132/2.

For more information about the launch, click the button.

Launch to space Kosmos-3M | Parus 27
Kosmos-3M | Parus 27

Agency: N/A

Status: Launch Successful

Launch date: June 4, 1981, 3:41 p.m. UTC

Rocket: Kosmos-3M

Launch pad: 132/2

Location: Plesetsk Cosmodrome, Russian Federation

...

Latest news about this satellite

There are no fresh news available about this satellite. Check back as we update our databases every day.


Newsletter sign-up

Weekly statistics, charts and insights to help you stay on top of the space industry.